Burleson, TX

8:39 AM CST on February 25, 2017 (GMT -0600)
Fort Worth Spinks

Weather History for KFWS - September, 2014

Change the Weather History Date:

Thursday, September 4, 2014

  Actual Average (KNFW) Record (KNFW)
Temperature  
Mean Temperature 84 °F -  
Max Temperature 95 °F 89 °F 107 °F (1998)
Min Temperature 74 °F 71 °F 60 °F (2010)
Cooling Degree Days 20    
Growing Degree Days 34 (Base 50)    
Moisture  
Dew Point 67 °F    
Average Humidity 59    
Maximum Humidity 83    
Minimum Humidity 34    
Precipitation  
Precipitation 0.00 in - - ()
Sea Level Pressure  
Sea Level Pressure 30.00 in    
Wind  
Wind Speed 7 mph (South)    
Max Wind Speed 14 mph    
Max Gust Speed 22 mph    
Visibility 10 miles    
Events      
Averages and records for this station are not official NWS values.
T = Trace of Precipitation, MM = Missing Value Source: NWS Daily Summary

Daily Weather History Graph

Daily Weather History Graph

Search for Another Location

Airport or City:

Trip Planner

Search our weather history database for the weather conditions in past years. The results will help you decide how hot, cold, wet, or windy it might be!

Date:

Astronomy

Sep. 04, 2014 Rise Set
Actual Time 7:06 AM CDT 7:49 PM CDT
Civil Twilight 6:41 AM CDT 8:14 PM CDT
Nautical Twilight 6:11 AM CDT 8:44 PM CDT
Astronomical Twilight 5:41 AM CDT 9:14 PM CDT
Moon 4:18 PM CDT (9/4) 2:08 AM CDT (9/4)
Length of Visible Light 13h 33m
Length of Day
12h 43m
Waxing Gibbous, 74% of the Moon is Illuminated
Sep 4
Waxing Gibbous
Sep 8
Full
Sep 15
Last Quarter
Sep 24
New
Oct 1
First Quarter

Hourly Weather History & Observations

Time (CDT) Temp. Heat Index Dew Point Humidity Pressure Visibility Wind Dir Wind Speed Gust Speed Precip Events Conditions
12:15 AM 81.9 °F 84.1 °F 66.0 °F 59% 29.97 in 10.0 mi SSE 8.1 mph - N/A   Clear
12:35 AM 82.0 °F 84.3 °F 66.4 °F 59% 29.98 in 10.0 mi SSE 8.1 mph - N/A   Clear
12:55 AM 82.4 °F 84.8 °F 66.7 °F 59% 29.99 in 10.0 mi South 6.9 mph - N/A   Clear
1:15 AM 81.9 °F 84.4 °F 67.1 °F 61% 29.99 in 10.0 mi South 9.2 mph - N/A   Clear
1:35 AM 81.5 °F 83.9 °F 67.1 °F 61% 29.99 in 10.0 mi South 8.1 mph - N/A   Clear
1:55 AM 80.6 °F 82.9 °F 67.1 °F 63% 29.99 in 10.0 mi South 6.9 mph - N/A   Clear
2:15 AM 80.1 °F 82.3 °F 67.1 °F 64% 29.99 in 10.0 mi South 8.1 mph - N/A   Clear
2:35 AM 80.1 °F 82.3 °F 67.1 °F 64% 29.99 in 10.0 mi South 8.1 mph - N/A   Clear
2:55 AM 79.3 °F - 66.9 °F 66% 29.99 in 10.0 mi South 6.9 mph - N/A   Clear
3:15 AM 78.4 °F - 66.2 °F 66% 29.99 in 7.0 mi South 6.9 mph - N/A   Clear
3:35 AM 78.3 °F - 66.2 °F 66% 29.99 in 10.0 mi South 6.9 mph - N/A   Clear
3:55 AM 77.4 °F - 66.2 °F 68% 29.99 in 10.0 mi South 4.6 mph - N/A   Clear
4:15 AM 76.6 °F - 66.2 °F 70% 29.99 in 10.0 mi South 4.6 mph - N/A   Clear
4:35 AM 76.6 °F - 66.2 °F 70% 29.99 in 10.0 mi South 4.6 mph - N/A   Clear
4:55 AM 75.7 °F - 66.2 °F 72% 29.99 in 10.0 mi Calm Calm - N/A   Clear
5:15 AM 75.6 °F - 66.4 °F 73% 29.99 in 10.0 mi SSW 5.8 mph - N/A   Clear
5:35 AM 76.6 °F - 67.5 °F 73% 30.00 in 10.0 mi South 5.8 mph - N/A   Clear
5:55 AM 75.7 °F - 67.6 °F 76% 30.00 in 10.0 mi South 5.8 mph - N/A   Clear
6:15 AM 74.8 °F - 68.0 °F 79% 30.01 in 10.0 mi South 4.6 mph - N/A   Clear
6:35 AM 74.8 °F - 68.2 °F 80% 30.02 in 10.0 mi South 3.5 mph - N/A   Clear
6:53 AM 75.2 °F - 68.0 °F 78% 30.02 in 10.0 mi South 4.6 mph - N/A   Clear
7:53 AM 75.2 °F - 69.8 °F 83% 30.04 in 10.0 mi Calm Calm - N/A   Clear
8:51 AM 80.6 °F 84.6 °F 71.6 °F 74% 30.05 in 10.0 mi South 4.6 mph - N/A   Scattered Clouds
9:54 AM 82.4 °F 87.2 °F 71.6 °F 70% 30.07 in 10.0 mi SSW 10.4 mph 16.1 mph N/A   Mostly Cloudy
10:53 AM 86.0 °F 91.8 °F 71.6 °F 62% 30.08 in 10.0 mi South 9.2 mph 18.4 mph N/A   Mostly Cloudy
12:48 PM 89.6 °F 94.7 °F 69.8 °F 52% 30.05 in 10.0 mi SSE 9.2 mph - N/A   Mostly Cloudy
1:49 PM 93.2 °F 96.2 °F 66.2 °F 41% 30.03 in 10.0 mi SSE 11.5 mph - N/A   Mostly Cloudy
2:47 PM 93.2 °F 96.2 °F 66.2 °F 41% 30.00 in 10.0 mi SSE 6.9 mph - N/A   Mostly Cloudy
3:53 PM 95.0 °F 97.0 °F 64.4 °F 36% 29.97 in 10.0 mi SSE 9.2 mph 18.4 mph N/A   Scattered Clouds
4:47 PM 93.2 °F 94.9 °F 64.4 °F 38% 29.97 in 10.0 mi SSE 10.4 mph 19.6 mph N/A   Scattered Clouds
5:48 PM 95.0 °F 96.0 °F 62.6 °F 34% 29.95 in 10.0 mi SE 11.5 mph 21.9 mph N/A   Scattered Clouds
6:47 PM 93.2 °F 94.1 °F 62.6 °F 36% 29.96 in 10.0 mi SSE 10.4 mph 19.6 mph N/A   Partly Cloudy
7:15 PM 92.5 °F 93.7 °F 63.5 °F 38% 29.95 in 10.0 mi SSE 6.9 mph - N/A   Clear
7:35 PM 91.4 °F 92.4 °F 63.0 °F 39% 29.96 in 10.0 mi SSE 6.9 mph - N/A   Clear
7:55 PM 90.1 °F 92.7 °F 66.0 °F 45% 29.97 in 10.0 mi South 13.8 mph - N/A   Clear
8:15 PM 88.3 °F 90.9 °F 66.6 °F 48% 29.98 in 10.0 mi South 8.1 mph - N/A   Clear
8:35 PM 87.8 °F 90.0 °F 65.8 °F 48% 29.98 in 10.0 mi South 9.2 mph - N/A   Clear
8:55 PM 86.7 °F 88.7 °F 65.3 °F 49% 29.99 in 10.0 mi South 6.9 mph - N/A   Clear
9:15 PM 85.6 °F 87.6 °F 65.5 °F 51% 30.00 in 10.0 mi SSE 4.6 mph - N/A   Clear
9:35 PM 84.7 °F 86.8 °F 66.0 °F 53% 30.01 in 10.0 mi SSE 5.8 mph - N/A   Clear
10:15 PM 82.4 °F 85.0 °F 67.1 °F 60% 30.03 in 10.0 mi SSE 5.8 mph - N/A   Clear
10:35 PM 82.8 °F 85.3 °F 67.1 °F 59% 30.04 in 10.0 mi SSE 5.8 mph - N/A   Clear
10:55 PM 81.9 °F 84.4 °F 67.3 °F 61% 30.04 in 10.0 mi SSE 6.9 mph - N/A   Clear
11:15 PM 82.0 °F 84.5 °F 67.1 °F 60% 30.04 in 10.0 mi SSE 8.1 mph - N/A   Clear
11:35 PM 81.9 °F 84.4 °F 67.3 °F 61% 30.04 in 10.0 mi SSE 6.9 mph - N/A   Clear
11:55 PM 80.8 °F 83.3 °F 67.6 °F 64% 30.04 in 10.0 mi SSE 6.9 mph - N/A   Clear